Vertical_Velocity
1 -0 1 2 0 -2 -3 -2 1 2 3 0 -1 0 1 3 0 1 0 -1 -0 0 -1 0 1 1 1 1 0 1 1 0 1 0 0 0 1 1 1 0 1 1 0
1 1 1 -4 -6 -3 -2 1 3 1 0 0 0 -0 2 1 -1 1 0 0 -0 1 1 -0 -1 1 -1 1 -0 1 0 0 -0 1 1 -0 0 -1 1 -1 1 -1 1
-0 3 -4 -2 -1 -2 -2 -1 -1 -0 1 -0 -1 1 2 1 1 -1 -1 2 0 2 2 3 2 -1 0 0 2 -0 1 0 0 -1 1 3 1 1 1 -0 1 1 1
-6 -1 0 -5 1 -2 -0 1 -6 -0 3 -0 0 -0 1 -3 -1 4 4 0 2 -0 2 2 4 6 3 2 0 2 -1 0 2 1 2 1 3 0 0 0 -1 -0 1
5 -0 -3 -6 -4 -2 1 3 -2 -2 0 -3 -2 -4 3 4 3 0 9 3 4 2 3 -1 0 3 1 1 -1 1 3 -1 1 2 1 1 -0 1 1 2 3 1 1
-0 -0 -2 -3 -7 -1 -3 1 3 -3 -2 -1 2 3 2 7 27 21 9 12 16 6 8 -2 -0 -0 4 4 2 0 1 3 -0 2 -1 1 3 1 2 -1 1 1 -1
1 -3 -8 -4 -6 -5 -4 -2 7 -6 1 1 -1 -4 7 -4 -22 -2 45 -5 -1 -2 3 1 2 -0 1 4 -1 4 2 2 1 1 -0 2 0 1 0 0 2 4 0
-4 -5 -4 -3 -6 -8 -7 -1 -0 3 -1 3 2 2 1 1 -2 7 -33 -2 0 -1 -6 1 -0 2 2 2 1 -0 2 3 1 1 0 1 -0 1 1 -0 0 -2 0
-1 1 -2 1 1 -3 -5 -7 -6 2 -1 3 3 3 4 0 -1 -2 2 -13 -5 -0 -0 3 2 2 0 5 1 -0 -0 1 2 3 0 2 -0 -1 1 2 1 5 2
2 1 3 -1 -2 2 -2 -4 -4 -4 1 1 3 3 5 5 1 3 -1 0 2 -11 -8 -5 5 1 1 5 2 2 1 2 2 2 2 2 -1 1 -3 1 3 3 -1
-1 3 1 2 0 3 -2 2 -5 -1 -2 -1 2 3 3 2 2 4 8 5 -1 5 -5 1 0 4 -1 4 5 1 1 5 3 2 -1 -0 -2 0 4 3 1 2 -1
0 1 2 -0 3 -0 6 -1 2 -2 1 -3 1 6 4 5 3 6 7 7 2 3 -8 -0 -0 3 -3 1 4 -1 0 1 2 2 -3 1 0 -0 2 1 -1 1 -3
4 3 0 2 5 1 -0 5 1 2 1 -1 -2 3 3 4 3 3 6 3 2 3 -16 -6 -0 1 -2 3 4 2 -1 5 2 1 -1 0 0 6 1 2 2 -0 -2
-6 4 -0 2 6 3 2 3 4 1 2 2 -4 -3 -1 3 0 0 7 2 4 1 7 -8 1 2 2 2 3 4 -1 -2 4 0 -0 -0 3 3 2 -1 -0 -2 -1
-5 5 -1 -1 1 3 3 2 5 4 3 8 -0 0 1 5 5 -2 3 -5 9 -1 2 -4 8 2 3 1 4 3 -1 1 5 3 1 1 -1 -1 0 -0 2 0 -0
-2 1 5 -6 -2 1 3 3 6 4 3 7 -0 1 0 4 3 4 2 10 -5 3 1 -2 7 -1 3 2 4 3 -3 2 6 2 1 -2 -1 1 2 -2 0 1 1
-3 0 -0 4 -4 -2 -0 2 3 4 3 7 -1 0 2 -1 0 5 -8 -8 2 9 10 -3 -6 4 3 -1 1 2 -1 3 -1 1 1 2 1 2 -0 1 -0 1 0
-2 -1 -2 3 1 3 -5 3 2 2 5 4 2 -0 -5 -2 -1 4 3 8 8 -3 3 3 -11 2 2 3 2 2 2 -0 3 0 2 3 -1 1 1 0 -1 -1 1
-4 -3 -7 0 6 5 -2 -0 0 2 5 3 2 -0 -1 -1 2 -1 6 1 21 1 1 1 -3 3 4 1 0 -0 2 4 2 2 1 3 1 -1 1 -0 1 1 -2
-3 -1 -8 -3 5 1 -2 -7 -5 2 6 0 3 -0 1 0 2 1 15 -10 18 -0 -2 -1 -4 4 8 8 2 2 2 5 0 -1 1 1 1 0 3 4 1 2 1
-2 2 -5 -1 8 0 -3 -4 -7 7 2 2 0 0 1 4 0 0 70 -3 24 18 -6 3 3 3 0 -1 4 2 -0 3 -1 -1 1 0 -2 -2 2 3 -5 3 -3
-1 0 -4 2 7 3 4 1 -6 8 0 2 -1 0 1 3 6 13 5 23 5 -1 15 -1 2 -4 0 3 1 4 1 -1 -2 1 0 1 1 1 0 1 -1 2 0
3 1 -6 4 1 2 3 -2 -3 2 2 -4 4 0 0 -3 5 3 16 -8 17 10 -2 -6 -3 -1 -0 -0 -5 3 -7 -6 -1 0 0 1 0 1 1 -1 -16 -4 -1
3 5 -0 4 -2 2 3 -8 -1 6 1 -3 0 -1 -3 -2 -1 -8 4 -6 21 -2 1 -5 3 3 2 2 2 -0 1 3 -0 0 -8 2 1 2 0 -2 -15 0 -1
-0 10 1 -2 0 3 -3 -6 -8 5 -1 -3 -2 0 -2 -3 -7 4 -10 -6 15 0 3 1 -2 -4 4 5 5 1 -3 -2 -0 2 -4 2 -0 -0 1 -5 -3 -1 -2
-2 6 6 0 2 2 0 3 -8 2 -2 -3 -3 1 0 3 -0 -1 6 1 -13 -2 1 3 1 0 1 4 0 -2 0 2 3 2 3 4 8 4 0 1 -4 1 3
Height
3143 3143 3143 3143 3142 3142 3142 3141 3140 3140 3141 3142 3144 3146 3147 3149 3151 3153 3155 3156 3157 3158 3159 3160 3162 3163 3164 3165 3165 3167 3167 3168 3169 3169 3170 3171 3172 3173 3174 3174 3175 3176 3176
3143 3143 3142 3140 3139 3138 3138 3138 3137 3138 3139 3142 3144 3145 3147 3149 3151 3153 3154 3155 3156 3157 3158 3160 3161 3162 3163 3164 3165 3166 3166 3167 3168 3168 3170 3171 3172 3172 3173 3174 3175 3175 3176
3141 3140 3139 3138 3137 3136 3135 3135 3135 3136 3138 3140 3143 3145 3147 3149 3150 3152 3153 3154 3155 3156 3157 3159 3160 3161 3162 3163 3164 3165 3166 3167 3168 3169 3170 3171 3172 3173 3174 3174 3175 3175 3176
3138 3138 3137 3137 3136 3135 3134 3134 3134 3135 3137 3139 3142 3145 3146 3148 3149 3149 3150 3152 3154 3154 3155 3157 3159 3161 3162 3163 3163 3164 3165 3166 3168 3168 3170 3170 3172 3173 3173 3174 3175 3175 3176
3138 3136 3136 3136 3135 3134 3132 3133 3133 3135 3136 3138 3141 3143 3145 3147 3147 3148 3149 3150 3151 3153 3154 3156 3157 3159 3160 3162 3163 3164 3165 3166 3167 3168 3169 3170 3171 3172 3173 3174 3175 3175 3175
3137 3136 3136 3135 3134 3132 3132 3132 3132 3133 3134 3137 3139 3140 3142 3146 3142 3142 3147 3146 3150 3151 3152 3154 3156 3156 3158 3160 3162 3164 3165 3166 3167 3168 3169 3170 3170 3172 3172 3173 3174 3175 3176
3136 3135 3134 3134 3134 3133 3131 3131 3131 3132 3132 3135 3137 3138 3139 3140 3133 3143 3140 3146 3148 3150 3150 3151 3153 3154 3156 3159 3161 3163 3164 3165 3166 3167 3169 3169 3171 3171 3172 3173 3173 3174 3175
3132 3132 3131 3131 3131 3132 3130 3130 3129 3130 3131 3132 3133 3136 3137 3139 3136 3139 3138 3141 3146 3147 3149 3149 3151 3153 3155 3157 3159 3161 3163 3164 3165 3166 3168 3169 3171 3172 3172 3173 3173 3175 3176
3130 3130 3129 3129 3128 3128 3129 3129 3127 3128 3129 3129 3130 3132 3134 3135 3136 3135 3137 3137 3141 3143 3146 3146 3149 3152 3154 3155 3157 3160 3162 3163 3165 3166 3167 3168 3169 3170 3171 3173 3173 3174 3176
3128 3127 3126 3126 3126 3126 3125 3125 3126 3125 3125 3126 3126 3128 3129 3130 3131 3132 3135 3136 3138 3140 3140 3143 3147 3151 3151 3153 3156 3158 3160 3162 3164 3164 3165 3166 3168 3170 3171 3172 3172 3174 3175
3124 3124 3123 3123 3123 3123 3122 3121 3122 3123 3122 3122 3123 3124 3124 3125 3126 3128 3130 3132 3134 3137 3139 3141 3145 3148 3149 3151 3155 3157 3159 3161 3163 3164 3165 3166 3167 3168 3169 3172 3173 3175 3176
3119 3120 3119 3119 3119 3120 3119 3118 3117 3118 3118 3118 3119 3120 3120 3120 3121 3123 3126 3127 3130 3133 3132 3138 3142 3144 3147 3150 3153 3155 3157 3160 3162 3163 3164 3165 3166 3166 3169 3172 3174 3175 3176
3116 3115 3116 3115 3115 3116 3116 3115 3113 3113 3113 3113 3115 3115 3116 3115 3116 3117 3120 3122 3124 3127 3131 3133 3138 3141 3145 3149 3152 3155 3156 3158 3159 3161 3163 3164 3166 3166 3171 3173 3174 3175 3174
3109 3110 3111 3111 3111 3111 3111 3111 3110 3108 3107 3107 3107 3107 3108 3108 3109 3111 3114 3116 3119 3123 3127 3128 3135 3139 3142 3147 3150 3153 3155 3157 3157 3159 3161 3163 3163 3166 3172 3173 3173 3174 3174
3103 3104 3104 3104 3105 3105 3105 3106 3105 3103 3102 3101 3100 3100 3100 3101 3102 3103 3106 3109 3114 3118 3123 3125 3131 3135 3139 3144 3147 3150 3153 3155 3156 3156 3160 3162 3165 3168 3170 3169 3171 3172 3173
3096 3097 3097 3098 3097 3098 3099 3100 3100 3098 3097 3095 3094 3093 3093 3094 3096 3098 3101 3103 3108 3113 3117 3123 3129 3133 3137 3141 3145 3147 3150 3153 3154 3156 3159 3161 3165 3167 3167 3167 3169 3170 3172
3088 3087 3088 3089 3090 3090 3092 3093 3094 3093 3091 3090 3088 3084 3085 3086 3089 3093 3095 3097 3101 3107 3112 3118 3125 3130 3134 3138 3142 3145 3147 3150 3151 3155 3158 3160 3163 3164 3164 3166 3168 3169 3171
3078 3078 3080 3080 3081 3083 3085 3086 3088 3088 3086 3084 3083 3079 3080 3081 3083 3086 3087 3090 3095 3102 3107 3114 3121 3125 3131 3135 3139 3142 3145 3148 3148 3153 3156 3158 3160 3161 3163 3165 3167 3168 3169
3067 3068 3071 3072 3073 3075 3078 3080 3081 3081 3081 3078 3076 3075 3074 3075 3076 3079 3081 3082 3089 3096 3102 3108 3115 3122 3128 3132 3136 3140 3142 3144 3145 3151 3153 3156 3158 3159 3161 3163 3165 3167 3167
3058 3059 3063 3064 3066 3068 3071 3073 3073 3074 3075 3073 3070 3069 3068 3067 3069 3070 3071 3074 3082 3088 3096 3102 3110 3118 3125 3129 3132 3136 3137 3141 3142 3147 3150 3154 3155 3157 3159 3160 3162 3163 3164
3049 3050 3055 3057 3060 3062 3064 3066 3067 3068 3068 3066 3063 3062 3060 3060 3060 3061 3060 3068 3074 3081 3090 3096 3104 3113 3117 3123 3128 3130 3135 3138 3139 3144 3149 3151 3153 3156 3157 3158 3162 3162 3161
3041 3043 3047 3049 3053 3056 3058 3060 3062 3063 3062 3060 3057 3055 3054 3053 3051 3050 3051 3058 3067 3075 3081 3090 3100 3106 3112 3118 3123 3129 3131 3136 3137 3142 3147 3149 3152 3153 3155 3157 3159 3160 3159
3035 3036 3040 3042 3046 3049 3051 3054 3055 3056 3057 3055 3052 3049 3048 3047 3043 3042 3046 3053 3060 3068 3076 3086 3093 3099 3108 3113 3120 3124 3126 3130 3136 3140 3144 3146 3148 3151 3152 3152 3154 3158 3157
3029 3031 3034 3036 3039 3042 3045 3048 3050 3051 3050 3049 3046 3044 3043 3043 3040 3037 3042 3048 3056 3065 3072 3080 3089 3097 3105 3110 3114 3118 3124 3130 3132 3137 3142 3144 3145 3147 3146 3146 3151 3155 3154
3024 3024 3027 3030 3033 3035 3039 3042 3045 3045 3045 3043 3041 3040 3039 3039 3037 3040 3041 3047 3052 3060 3068 3077 3084 3090 3099 3105 3110 3115 3119 3124 3129 3133 3138 3141 3142 3143 3142 3144 3148 3149 3149
3019 3019 3021 3024 3027 3028 3032 3036 3039 3040 3040 3038 3037 3036 3036 3037 3037 3038 3041 3044 3050 3057 3065 3073 3082 3088 3095 3101 3106 3111 3116 3121 3126 3129 3133 3135 3137 3138 3139 3141 3143 3144 3144